| time (UTC) | temp F | wind direction | speed MPH | gust MPH | rain 1hr in | rain 24hr in | rain mn in | humidity % | barometer mb |
| 20260904090330 | 82 | 199 | 2.0 | 5.0 | 0.00 | 0.00 | 0.00 | 67 | 1010.0 |
| 20260904085402 | 82 | 159 | 2.0 | 6.0 | 0.00 | 0.00 | 0.00 | 67 | 1010.0 |
| 20260904084344 | 82 | 213 | 1.0 | 6.0 | 0.00 | 0.00 | 0.00 | 67 | 1009.9 |
| 20260904083326 | 82 | 144 | 2.0 | 7.0 | 0.00 | 0.00 | 0.00 | 67 | 1010.0 |
| 20260904082400 | 82 | 237 | 2.0 | 8.0 | 0.00 | 0.00 | 0.00 | 67 | 1009.9 |
| 20260904081349 | 82 | 228 | 2.0 | 9.0 | 0.00 | 0.00 | 0.00 | 67 | 1009.9 |
| 20260904080333 | 82 | 187 | 2.0 | 5.0 | 0.00 | 0.00 | 0.00 | 67 | 1009.9 |
| 20260904075337 | 82 | 147 | 2.0 | 6.0 | 0.00 | 0.00 | 0.00 | 67 | 1010.0 |
| 20260904074325 | 81 | 203 | 2.0 | 6.0 | 0.00 | 0.00 | 0.00 | 67 | 1010.0 |
| 20260904073339 | 81 | 236 | 2.0 | 6.0 | 0.00 | 0.00 | 0.00 | 67 | 1010.0 |
| 20260904072327 | 81 | 140 | 2.0 | 5.0 | 0.00 | 0.00 | 0.00 | 66 | 1010.0 |
| 20260904071404 | 81 | 163 | 1.0 | 3.0 | 0.00 | 0.00 | 0.00 | 67 | 1010.0 |
| 20260904070333 | 81 | 297 | 1.0 | 3.0 | 0.00 | 0.00 | 0.00 | 67 | 1010.0 |
| 20260904065327 | 82 | 173 | 1.0 | 3.0 | 0.00 | 0.00 | 0.00 | 66 | 1010.0 |
| 20260904064402 | 82 | 141 | 1.0 | 4.0 | 0.00 | 0.00 | 0.00 | 66 | 1010.1 |
| 20260904063346 | 82 | 224 | 0.0 | 5.0 | 0.00 | 0.00 | 0.00 | 66 | 1010.1 |
| 20260904062331 | 82 | 228 | 1.0 | 3.0 | 0.00 | 0.00 | 0.00 | 66 | 1010.1 |
| 20260904061337 | 82 | 174 | 1.0 | 4.0 | 0.00 | 0.00 | 0.00 | 65 | 1010.0 |
| 20260904060348 | 83 | 169 | 2.0 | 4.0 | 0.00 | 0.00 | 0.00 | 64 | 1009.9 |
| 20260904055332 | 83 | 148 | 2.0 | 7.0 | 0.00 | 0.00 | 0.00 | 64 | 1009.9 |
| 20260904054403 | 83 | 168 | 2.0 | 6.0 | 0.00 | 0.00 | 0.00 | 64 | 1009.7 |
| 20260904053330 | 83 | 149 | 0.0 | 6.0 | 0.00 | 0.00 | 0.00 | 64 | 1009.7 |
| 20260904052341 | 83 | 171 | 2.0 | 8.0 | 0.00 | 0.00 | 0.00 | 64 | 1009.6 |
| 20260904051327 | 83 | 216 | 1.0 | 7.0 | 0.00 | 0.00 | 0.00 | 64 | 1009.5 |
| 20260904050336 | 83 | 225 | 1.0 | 5.0 | 0.00 | 0.00 | 0.00 | 64 | 1009.5 |
| 20260904045328 | 83 | 157 | 0.0 | 3.0 | 0.00 | 0.00 | 0.00 | 64 | 1009.5 |
| 20260904044335 | 84 | 179 | 1.0 | 6.0 | 0.00 | 0.00 | 0.00 | 64 | 1009.5 |
| 20260904043326 | 84 | 258 | 1.0 | 4.0 | 0.00 | 0.00 | 0.00 | 64 | 1009.5 |
| 20260904042358 | 84 | 202 | 0.0 | 1.0 | 0.00 | 0.00 | 0.00 | 64 | 1009.5 |
| 20260904041341 | 84 | 212 | 1.0 | 3.0 | 0.00 | 0.00 | 0.00 | 64 | 1009.6 |
| 20260904040355 | 84 | 147 | 0.0 | 3.0 | 0.00 | 0.00 | 0.00 | 64 | 1009.5 |
| 20260904035327 | 84 | 358 | 0.0 | 2.0 | 0.00 | 0.00 | 0.00 | 64 | 1009.5 |
| 20260904034350 | 84 | 157 | 1.0 | 7.0 | 0.00 | 0.00 | 0.00 | 64 | 1009.6 |
| 20260904033330 | 85 | 273 | 0.0 | 2.0 | 0.00 | 0.00 | 0.00 | 64 | 1009.7 |
| 20260904032327 | 85 | 294 | 0.0 | 2.0 | 0.00 | 0.00 | 0.00 | 65 | 1009.6 |
| 20260904031345 | 85 | 249 | 0.0 | 4.0 | 0.00 | 0.00 | 0.00 | 64 | 1009.5 |
| 20260904030327 | 85 | 223 | 0.0 | 2.0 | 0.00 | 0.00 | 0.00 | 64 | 1009.4 |
| 20260904025339 | 85 | 161 | 0.0 | 3.0 | 0.00 | 0.00 | 0.00 | 64 | 1009.4 |
| 20260904024325 | 86 | 279 | 0.0 | 2.0 | 0.00 | 0.00 | 0.00 | 64 | 1009.4 |
| 20260904023333 | 86 | 244 | 1.0 | 3.0 | 0.00 | 0.00 | 0.00 | 64 | 1009.3 |
| 20260904022345 | 86 | 190 | 1.0 | 3.0 | 0.00 | 0.00 | 0.00 | 64 | 1009.2 |
| 20260904021331 | 86 | 244 | 0.0 | 3.0 | 0.00 | 0.00 | 0.00 | 63 | 1009.1 |
| 20260904020339 | 87 | 144 | 0.0 | 1.0 | 0.00 | 0.00 | 0.00 | 63 | 1009.1 |
| 20260904015325 | 87 | 230 | 0.0 | 2.0 | 0.00 | 0.00 | 0.00 | 62 | 1009.1 |
| 20260904014354 | 87 | 278 | 0.0 | 1.0 | 0.00 | 0.00 | 0.00 | 62 | 1008.9 |
| 20260904013323 | 88 | 81 | 0.0 | 0.0 | 0.00 | 0.00 | 0.00 | 61 | 1008.7 |
| 20260904012336 | 88 | 175 | 0.0 | 2.0 | 0.00 | 0.00 | 0.00 | 60 | 1008.6 |
| 20260904011343 | 89 | 239 | 0.0 | 2.0 | 0.00 | 0.00 | 0.00 | 60 | 1008.5 |
| 20260904010336 | 89 | 205 | 0.0 | 2.0 | 0.00 | 0.00 | 0.00 | 60 | 1008.4 |
| 20260904005324 | 90 | 275 | 0.0 | 0.0 | 0.00 | 0.00 | 0.00 | 59 | 1008.3 |
| 20260904004329 | 91 | 209 | 0.0 | 2.0 | 0.00 | 0.00 | 0.00 | 58 | 1008.3 |
| 20260904003334 | 92 | 175 | 0.0 | 2.0 | 0.00 | 0.00 | 0.00 | 57 | 1008.2 |
| 20260904002324 | 92 | 180 | 0.0 | 4.0 | 0.00 | 0.00 | 0.00 | 56 | 1008.2 |
| 20260904001326 | 93 | 164 | 0.0 | 5.0 | 0.00 | 0.00 | 0.00 | 55 | 1008.2 |
| 20260904000335 | 95 | 230 | 1.0 | 5.0 | 0.00 | 0.00 | 0.00 | 53 | 1008.1 |
| 20260903235348 | 96 | 183 | 0.0 | 4.0 | 0.00 | 0.00 | 0.00 | 51 | 1008.1 |
| 20260903234401 | 96 | 184 | 0.0 | 5.0 | 0.00 | 0.00 | 0.00 | 51 | 1008.1 |
| 20260903233330 | 97 | 119 | 1.0 | 4.0 | 0.00 | 0.00 | 0.00 | 50 | 1008.0 |
| 20260903232339 | 97 | 169 | 1.0 | 7.0 | 0.00 | 0.00 | 0.00 | 50 | 1007.9 |
| 20260903231354 | 98 | 162 | 1.0 | 4.0 | 0.00 | 0.00 | 0.00 | 50 | 1007.9 |
| 20260903230344 | 98 | 215 | 2.0 | 7.0 | 0.00 | 0.00 | 0.00 | 50 | 1007.8 |
| 20260903225337 | 98 | 242 | 1.0 | 7.0 | 0.00 | 0.00 | 0.00 | 51 | 1007.8 |
| 20260903224352 | 98 | 254 | 2.0 | 7.0 | 0.00 | 0.00 | 0.00 | 48 | 1007.8 |
| 20260903223330 | 98 | 225 | 2.0 | 11.0 | 0.00 | 0.00 | 0.00 | 48 | 1007.9 |
| 20260903222341 | 98 | 235 | 2.0 | 9.0 | 0.00 | 0.00 | 0.00 | 49 | 1007.8 |
| 20260903221335 | 98 | 272 | 2.0 | 8.0 | 0.00 | 0.00 | 0.00 | 50 | 1007.8 |
| 20260903220325 | 98 | 153 | 2.0 | 10.0 | 0.00 | 0.00 | 0.00 | 50 | 1007.8 |
| 20260903215337 | 98 | 124 | 1.0 | 8.0 | 0.00 | 0.00 | 0.00 | 50 | 1007.8 |
| 20260903214351 | 98 | 154 | 2.0 | 5.0 | 0.00 | 0.00 | 0.00 | 50 | 1007.9 |
| 20260903213327 | 97 | 209 | 2.0 | 7.0 | 0.00 | 0.00 | 0.00 | 51 | 1007.9 |
| 20260903212334 | 97 | 310 | 2.0 | 10.0 | 0.00 | 0.00 | 0.00 | 50 | 1007.9 |
| 20260903211341 | 97 | 221 | 3.0 | 10.0 | 0.00 | 0.00 | 0.00 | 50 | 1007.9 |
| 20260903210330 | 98 | 269 | 2.0 | 10.0 | 0.00 | 0.00 | 0.00 | 50 | 1008.0 |
| 20260903205341 | 98 | 205 | 4.0 | 9.0 | 0.00 | 0.00 | 0.00 | 49 | 1008.1 |
| 20260903204325 | 98 | 206 | 2.0 | 6.0 | 0.00 | 0.00 | 0.00 | 52 | 1008.3 |
| 20260903202333 | 97 | 239 | 3.0 | 9.0 | 0.00 | 0.00 | 0.00 | 50 | 1008.3 |
| 20260903201338 | 97 | 163 | 2.0 | 6.0 | 0.00 | 0.00 | 0.00 | 51 | 1008.4 |
| 20260903200329 | 97 | 164 | 2.0 | 8.0 | 0.00 | 0.00 | 0.00 | 51 | 1008.4 |
| 20260903195339 | 97 | 132 | 4.0 | 11.0 | 0.00 | 0.00 | 0.00 | 50 | 1008.6 |
| 20260903194340 | 97 | 192 | 3.0 | 8.0 | 0.00 | 0.00 | 0.00 | 50 | 1008.5 |
| 20260903193347 | 96 | 146 | 2.0 | 6.0 | 0.00 | 0.00 | 0.00 | 53 | 1008.7 |
| 20260903192330 | 95 | 325 | 2.0 | 6.0 | 0.00 | 0.00 | 0.00 | 55 | 1008.9 |
| 20260903191334 | 95 | 297 | 2.0 | 4.0 | 0.00 | 0.00 | 0.00 | 55 | 1009.0 |
| 20260903190358 | 95 | 124 | 1.0 | 6.0 | 0.00 | 0.00 | 0.00 | 56 | 1009.2 |
| 20260903185330 | 94 | 266 | 1.0 | 6.0 | 0.00 | 0.00 | 0.00 | 57 | 1009.3 |
| 20260903184403 | 94 | 194 | 2.0 | 5.0 | 0.00 | 0.00 | 0.00 | 56 | 1009.5 |
| 20260903183348 | 94 | 165 | 2.0 | 4.0 | 0.00 | 0.00 | 0.00 | 57 | 1009.7 |
| 20260903182329 | 93 | 165 | 2.0 | 7.0 | 0.00 | 0.00 | 0.00 | 57 | 1009.8 |
| 20260903181333 | 93 | 161 | 2.0 | 6.0 | 0.00 | 0.00 | 0.00 | 57 | 1009.9 |
| 20260903180340 | 92 | 155 | 2.0 | 6.0 | 0.00 | 0.00 | 0.00 | 57 | 1010.0 |
| 20260903175342 | 91 | 96 | 1.0 | 4.0 | 0.00 | 0.00 | 0.00 | 59 | 1010.1 |
| 20260903174352 | 90 | 158 | 2.0 | 4.0 | 0.00 | 0.00 | 0.00 | 57 | 1010.2 |
| 20260903173329 | 90 | 274 | 2.0 | 6.0 | 0.00 | 0.00 | 0.00 | 60 | 1010.3 |
| 20260903172337 | 90 | 157 | 2.0 | 7.0 | 0.00 | 0.00 | 0.00 | 60 | 1010.2 |
| 20260903171405 | 89 | 157 | 2.0 | 4.0 | 0.00 | 0.00 | 0.00 | 59 | 1010.4 |
| 20260903170330 | 88 | 214 | 1.0 | 4.0 | 0.00 | 0.00 | 0.00 | 60 | 1010.5 |
| 20260903165333 | 86 | 175 | 1.0 | 4.0 | 0.00 | 0.00 | 0.00 | 64 | 1010.8 |
| 20260903164335 | 86 | 189 | 1.0 | 4.0 | 0.00 | 0.00 | 0.00 | 65 | 1010.7 |
| 20260903163324 | 86 | 127 | 2.0 | 4.0 | 0.00 | 0.00 | 0.00 | 65 | 1010.3 |
| 20260903162351 | 85 | 248 | 0.0 | 3.0 | 0.00 | 0.00 | 0.00 | 66 | 1010.5 |
| 20260903161336 | 85 | 216 | 1.0 | 3.0 | 0.00 | 0.00 | 0.00 | 66 | 1010.6 |
| 20260903160347 | 85 | 266 | 1.0 | 3.0 | 0.00 | 0.00 | 0.00 | 66 | 1010.5 |
| 20260903155330 | 84 | 223 | 0.0 | 0.0 | 0.00 | 0.00 | 0.00 | 70 | 1010.7 |
| 20260903154326 | 83 | 233 | 0.0 | 2.0 | 0.00 | 0.00 | 0.00 | 71 | 1010.5 |
| 20260903153332 | 83 | 239 | 0.0 | 0.0 | 0.00 | 0.00 | 0.00 | 70 | 1010.8 |
| 20260903152344 | 82 | 244 | 0.0 | 0.0 | 0.00 | 0.00 | 0.00 | 68 | 1010.9 |
| 20260903151400 | 82 | 249 | 0.0 | 0.0 | 0.00 | 0.00 | 0.00 | 70 | 1010.8 |
| 20260903150347 | 82 | 249 | 0.0 | 1.0 | 0.00 | 0.00 | 0.00 | 69 | 1010.7 |
| 20260903145334 | 81 | 248 | 0.0 | 0.0 | 0.00 | 0.06 | 0.00 | 69 | 1010.3 |
| 20260903144340 | 81 | 187 | 0.0 | 0.0 | 0.00 | 0.06 | 0.00 | 69 | 1010.4 |
| 20260903143323 | 81 | 228 | 0.0 | 1.0 | 0.00 | 0.06 | 0.00 | 69 | 1010.5 |
| 20260903142333 | 81 | 270 | 0.0 | 1.0 | 0.00 | 0.06 | 0.00 | 69 | 1010.4 |
| 20260903141338 | 80 | 244 | 0.0 | 1.0 | 0.00 | 0.06 | 0.00 | 69 | 1010.4 |
| 20260903140404 | 81 | 292 | 0.0 | 1.0 | 0.00 | 0.06 | 0.00 | 68 | 1010.4 |
| 20260903135329 | 81 | 221 | 0.0 | 1.0 | 0.00 | 0.06 | 0.00 | 69 | 1010.4 |
| 20260903134352 | 80 | 171 | 0.0 | 0.0 | 0.00 | 0.06 | 0.00 | 69 | 1010.4 |
| 20260903133333 | 79 | 132 | 0.0 | 0.0 | 0.00 | 0.06 | 0.00 | 70 | 1010.5 |
| 20260903132325 | 80 | 132 | 0.0 | 0.0 | 0.00 | 0.06 | 0.00 | 70 | 1010.6 |
| 20260903131350 | 80 | 132 | 0.0 | 0.0 | 0.00 | 0.06 | 0.00 | 69 | 1010.4 |
| 20260903130336 | 79 | 132 | 0.0 | 0.0 | 0.00 | 0.06 | 0.00 | 68 | 1010.6 |
| 20260903125346 | 80 | 132 | 0.0 | 0.0 | 0.00 | 0.06 | 0.00 | 69 | 1010.7 |
| 20260903124326 | 80 | 132 | 0.0 | 0.0 | 0.00 | 0.06 | 0.00 | 67 | 1010.7 |
| 20260903123328 | 81 | 132 | 0.0 | 0.0 | 0.00 | 0.06 | 0.00 | 65 | 1010.7 |
| 20260903122358 | 81 | 132 | 0.0 | 2.0 | 0.00 | 0.06 | 0.00 | 64 | 1010.6 |
| 20260903121400 | 81 | 116 | 0.0 | 2.0 | 0.00 | 0.06 | 0.00 | 63 | 1010.3 |
| 20260903120349 | 81 | 159 | 0.0 | 2.0 | 0.00 | 0.06 | 0.00 | 64 | 1010.2 |
| 20260903115334 | 81 | 145 | 0.0 | 2.0 | 0.00 | 0.06 | 0.00 | 65 | 1010.2 |
| 20260903114342 | 81 | 145 | 1.0 | 2.0 | 0.00 | 0.06 | 0.00 | 65 | 1010.1 |
| 20260903113356 | 80 | 155 | 0.0 | 2.0 | 0.00 | 0.06 | 0.00 | 66 | 1010.1 |
| 20260903112330 | 80 | 223 | 0.0 | 3.0 | 0.00 | 0.06 | 0.00 | 66 | 1010.0 |
| 20260903111330 | 79 | 227 | 1.0 | 4.0 | 0.00 | 0.06 | 0.00 | 69 | 1009.9 |
| 20260903110341 | 78 | 149 | 0.0 | 2.0 | 0.00 | 0.06 | 0.00 | 71 | 1009.8 |
| 20260903105359 | 79 | 247 | 0.0 | 0.0 | 0.00 | 0.06 | 0.00 | 70 | 1009.9 |
| 20260903104339 | 79 | 247 | 0.0 | 0.0 | 0.00 | 0.06 | 0.00 | 68 | 1010.0 |
| 20260903103347 | 79 | 237 | 0.0 | 0.0 | 0.00 | 0.06 | 0.00 | 67 | 1010.2 |
| 20260903102333 | 80 | 237 | 0.0 | 0.0 | 0.00 | 0.06 | 0.00 | 67 | 1010.1 |
| 20260903101340 | 80 | 153 | 0.0 | 2.0 | 0.00 | 0.06 | 0.00 | 66 | 1010.1 |
| 20260903100348 | 80 | 131 | 0.0 | 1.0 | 0.00 | 0.06 | 0.00 | 66 | 1010.1 |
| 20260903095331 | 80 | 330 | 1.0 | 2.0 | 0.00 | 0.06 | 0.00 | 66 | 1009.8 |
| 20260903094338 | 80 | 124 | 0.0 | 2.0 | 0.00 | 0.06 | 0.00 | 66 | 1009.8 |
| 20260903093347 | 80 | 244 | 0.0 | 1.0 | 0.00 | 0.06 | 0.00 | 66 | 1009.8 |
| 20260903092351 | 81 | 331 | 0.0 | 4.0 | 0.00 | 0.06 | 0.00 | 65 | 1009.8 |
| 20260903091335 | 81 | 162 | 0.0 | 3.0 | 0.00 | 0.06 | 0.00 | 64 | 1009.9 |